TimeMDT,TemperatureF,Dew PointF,Humidity,Sea Level PressureIn,VisibilityMPH,Wind Direction,Wind SpeedMPH,Gust SpeedMPH,PrecipitationIn,Events,Conditions,WindDirDegrees,DateUTC
12:15 AM,23.0,19.4,86,29.83,10.0,North,9.2,-,N/A,,Clear,360,2014-04-01 06:15:00
12:35 AM,21.2,19.4,93,29.82,10.0,North,10.4,-,N/A,,Clear,360,2014-04-01 06:35:00
12:55 AM,21.2,19.4,93,29.82,10.0,North,11.5,-,N/A,,Clear,360,2014-04-01 06:55:00
1:15 AM,21.2,19.4,93,29.81,10.0,North,9.2,-,N/A,,Clear,350,2014-04-01 07:15:00
1:35 AM,21.2,19.4,93,29.81,10.0,North,10.4,-,N/A,,Clear,360,2014-04-01 07:35:00
1:55 AM,21.2,19.4,93,29.80,10.0,North,12.7,-,N/A,,Clear,360,2014-04-01 07:55:00
2:15 AM,21.2,17.6,86,29.79,10.0,North,10.4,-,N/A,,Clear,360,2014-04-01 08:15:00
2:35 AM,21.2,17.6,86,29.79,10.0,North,10.4,-,N/A,,Clear,360,2014-04-01 08:35:00
2:55 AM,19.4,17.6,93,29.78,10.0,North,9.2,-,N/A,,Clear,360,2014-04-01 08:55:00
3:15 AM,19.4,17.6,93,29.78,10.0,North,9.2,-,N/A,,Clear,350,2014-04-01 09:15:00
3:35 AM,17.6,15.8,93,29.78,10.0,North,10.4,-,N/A,,Clear,360,2014-04-01 09:35:00
3:55 AM,17.6,15.8,93,29.77,10.0,North,10.4,-,N/A,,Clear,10,2014-04-01 09:55:00
4:15 AM,17.6,15.8,93,29.76,10.0,North,11.5,-,N/A,,Clear,360,2014-04-01 10:15:00
4:35 AM,17.6,15.8,93,29.76,10.0,North,10.4,-,N/A,,Clear,360,2014-04-01 10:35:00
4:55 AM,15.8,15.8,100,29.75,10.0,North,13.8,-,N/A,,Clear,360,2014-04-01 10:55:00
5:15 AM,15.8,14.0,93,29.75,10.0,North,10.4,-,N/A,,Clear,10,2014-04-01 11:15:00
5:35 AM,15.8,14.0,93,29.75,10.0,North,12.7,-,N/A,,Partly Cloudy,360,2014-04-01 11:35:00
5:55 AM,15.8,14.0,93,29.75,10.0,North,11.5,-,N/A,,Mostly Cloudy,360,2014-04-01 11:55:00
6:15 AM,15.8,15.8,100,29.75,10.0,North,10.4,-,N/A,,Overcast,350,2014-04-01 12:15:00
6:35 AM,15.8,14.0,93,29.74,10.0,North,12.7,-,N/A,,Overcast,10,2014-04-01 12:35:00
6:51 AM,15.8,14.0,93,29.74,10.0,North,12.7,-,N/A,,Overcast,360,2014-04-01 12:51:00
7:51 AM,17.6,15.8,93,29.73,10.0,North,11.5,-,N/A,,Overcast,350,2014-04-01 13:51:00
8:51 AM,19.4,15.8,86,29.73,10.0,NNW,10.4,-,N/A,,Mostly Cloudy,340,2014-04-01 14:51:00
9:51 AM,23.0,17.6,80,29.72,10.0,NNE,5.8,-,N/A,,Scattered Clouds,20,2014-04-01 15:51:00
10:51 AM,26.6,17.6,69,29.72,10.0,Calm,Calm,-,N/A,,Mostly Cloudy,0,2014-04-01 16:51:00
11:53 AM,28.4,19.4,69,29.70,10.0,East,4.6,-,N/A,,Scattered Clouds,100,2014-04-01 17:53:00
1:14 PM,32.0,19.4,60,29.68,10.0,East,3.5,-,N/A,,Partly Cloudy,90,2014-04-01 19:14:00
1:52 PM,33.8,21.2,60,29.67,10.0,South,5.8,-,N/A,,Partly Cloudy,170,2014-04-01 19:52:00
2:58 PM,39.2,21.2,49,29.65,10.0,Calm,Calm,-,N/A,,Partly Cloudy,0,2014-04-01 20:58:00
3:57 PM,39.2,21.2,49,29.64,10.0,SW,3.5,-,N/A,,Scattered Clouds,220,2014-04-01 21:57:00
4:53 PM,42.8,19.4,39,29.63,10.0,SSE,3.5,-,N/A,,Clear,160,2014-04-01 22:53:00
5:53 PM,39.2,21.2,49,29.63,10.0,ESE,4.6,-,N/A,,Scattered Clouds,120,2014-04-01 23:53:00
6:57 PM,37.4,26.6,65,29.64,10.0,South,11.5,-,N/A,,Mostly Cloudy,180,2014-04-02 00:57:00
7:51 PM,33.8,30.2,87,29.65,10.0,SW,11.5,-,N/A,,Mostly Cloudy,230,2014-04-02 01:51:00
8:55 PM,33.8,30.2,87,29.66,8.0,SSW,6.9,-,N/A,,Overcast,200,2014-04-02 02:55:00
9:15 PM,32.0,30.2,93,29.67,3.0,SSW,8.1,-,N/A,,Overcast,210,2014-04-02 03:15:00
9:35 PM,30.2,30.2,100,29.67,0.5,South,15.0,-,N/A,,Overcast,170,2014-04-02 03:35:00
9:55 PM,30.2,30.2,100,29.68,0.2,SSW,12.7,-,0.01,,Overcast,200,2014-04-02 03:55:00
10:15 PM,28.4,28.4,100,29.69,0.2,SW,10.4,-,0.01,,Overcast,220,2014-04-02 04:15:00
10:35 PM,28.4,26.6,93,29.70,1.0,SSW,9.2,-,0.01,,Overcast,200,2014-04-02 04:35:00
10:55 PM,28.4,26.6,93,29.69,2.5,South,10.4,-,0.01,,Overcast,170,2014-04-02 04:55:00
11:15 PM,28.4,26.6,93,29.70,10.0,SSE,6.9,-,N/A,,Overcast,150,2014-04-02 05:15:00
11:35 PM,28.4,26.6,93,29.69,9.0,South,12.7,-,N/A,,Overcast,170,2014-04-02 05:35:00
11:55 PM,28.4,28.4,100,29.70,10.0,South,11.5,-,N/A,,Overcast,180,2014-04-02 05:55:00